Overview Statistics Trail Chart Weather Telemetry Raw packets
 

This is the latest recevied weather packets stored in our database for station/object 9A7DI-13. If no packets are shown the sender has not sent any weather packets the latest 10 day(s).

<< 21 22 23 24 25 26 27 >>
Time Temp. Humidity Pressure Rain* Wind** Luminosity Snow
1788342405 30° C 33% 1029.2 hPa - - - -
1788341805 30° C 31% 1029.3 hPa - - - -
1788341205 29.44° C 34% 1029.4 hPa - - - -
1788340605 29.44° C 35% 1029.5 hPa - - - -
1788340005 29.44° C 35% 1029.6 hPa - - - -
1788339405 28.89° C 34% 1029.6 hPa - - - -
1788338805 28.89° C 36% 1029.6 hPa - - - -
1788338205 28.33° C 38% 1029.6 hPa - - - -
1788337605 27.78° C 40% 1029.7 hPa - - - -
1788337005 27.22° C 42% 1029.8 hPa - - - -
1788336405 26.67° C 44% 1029.7 hPa - - - -
1788335805 26.11° C 48% 1029.6 hPa - - - -
1788335205 25.56° C 49% 1029.6 hPa - - - -
1788334605 24.44° C 53% 1029.6 hPa - - - -
1788334005 23.89° C 54% 1029.5 hPa - - - -
1788333405 22.22° C 57% 1029.5 hPa - - - -
1788332805 21.67° C 61% 1029.3 hPa - - - -
1788332205 20.56° C 65% 1029.4 hPa - - - -
1788331605 20° C 66% 1029.5 hPa - - - -
1788331005 19.44° C 68% 1029.7 hPa - - - -
1788330405 18.89° C 70% 1029.7 hPa - - - -
1788329805 18.33° C 72% 1029.8 hPa - - - -
1788329205 17.22° C 75% 1029.8 hPa - - - -
1788328605 16.67° C 78% 1029.9 hPa - - - -
1788328005 16.11° C 80% 1030 hPa - - - -

* Rain since midnight (hover to see other rain measurements)
** Current wind speed in m/s (hover to see current wind gust speed)